K42C Weather Reports


Display with metric or nautical units.
time (UTC)temp
F
wind
direction
speed
MPH
gust
MPH
rain 1hr
in
rain 24hr
in
rain mn
in
humidity
%
barometer
mb
20260509200500 64 356 4.0 0.0 0.00 0.00 0.01 43 965.4
20260509195820 64 269 8.0 5.0 0.00 0.00 0.01 41 965.5
20260509195142 64 277 7.0 5.0 0.00 0.00 0.01 42 965.4
20260509194501 64 228 7.0 9.0 0.00 0.00 0.01 42 965.2
20260509193824 63 204 5.0 8.0 0.00 0.00 0.01 48 965.4
20260509193143 63 215 6.0 0.0 0.00 0.00 0.01 49 965.4
20260509192506 63 250 4.0 0.0 0.00 0.00 0.01 53 965.1
20260509191825 63 249 8.0 5.0 0.00 0.00 0.01 54 965.3
20260509191148 62 211 10.0 11.0 0.00 0.00 0.01 55 965.3
20260509190507 62 239 6.0 4.0 0.00 0.00 0.01 59 965.2
20260509185830 62 243 7.0 9.0 0.00 0.00 0.01 58 965.3
20260509185149 63 205 2.0 0.0 0.00 0.00 0.01 57 965.2
20260509184511 62 301 7.0 7.0 0.00 0.00 0.01 56 965.3
20260509183831 62 346 7.0 6.0 0.00 0.00 0.01 56 965.1
20260509183153 61 233 8.0 5.0 0.00 0.00 0.01 56 965.2
20260509182513 61 205 9.0 4.0 0.00 0.00 0.01 58 965.2
20260509181835 61 264 3.0 0.0 0.00 0.00 0.01 60 965.3
20260509181154 61 224 5.0 0.0 0.00 0.00 0.01 60 965.4
20260509180517 61 200 8.0 5.0 0.00 0.00 0.01 60 965.4
20260509175836 60 204 2.0 0.0 0.01 0.00 0.01 61 965.5
20260509175159 59 252 2.0 3.0 0.01 0.00 0.01 62 965.5
20260509174518 59 263 7.0 8.0 0.01 0.00 0.01 61 965.5
20260509173841 59 173 2.0 0.0 0.01 0.00 0.01 65 965.4
20260509173200 58 235 5.0 5.0 0.01 0.00 0.01 66 965.4
20260509172523 58 203 4.0 8.0 0.01 0.00 0.01 67 965.5
20260509171842 58 176 3.0 0.0 0.01 0.00 0.01 67 965.6
20260509171204 58 274 3.0 0.0 0.01 0.00 0.01 69 965.7
20260509170524 57 249 2.0 5.0 0.01 0.00 0.01 71 965.8
20260509165846 57 257 0.0 3.0 0.00 0.00 0.01 72 966.0
20260509165206 56 208 0.0 0.0 0.00 0.00 0.01 74 966.0
20260509164528 56 200 0.0 0.0 0.00 0.00 0.01 75 966.3
20260509163847 55 187 4.0 0.0 0.00 0.00 0.01 77 966.3
20260509163210 54 177 1.0 0.0 0.00 0.00 0.01 80 966.1
20260509161211 53 255 3.0 7.0 0.00 0.00 0.01 80 966.4
20260509160534 54 290 1.0 3.0 0.00 0.00 0.00 77 966.8
20260509155853 54 283 4.0 7.0 0.00 0.00 0.00 74 966.9
20260509155216 55 240 1.0 0.0 0.00 0.00 0.00 74 966.7
20260509154535 55 298 3.0 6.0 0.00 0.00 0.00 76 966.5
20260509153857 55 276 4.0 3.0 0.00 0.00 0.00 79 966.4
20260509153217 55 308 4.0 7.0 0.00 0.00 0.00 80 966.2
20260509152539 55 284 6.0 5.0 0.00 0.00 0.00 79 965.7
20260509151858 55 308 2.0 3.0 0.00 0.00 0.00 79 965.4
20260509151221 55 325 8.0 3.0 0.00 0.00 0.00 78 965.8
20260509150540 56 229 6.0 11.0 0.00 0.00 0.00 78 965.5
20260509145903 56 271 5.0 9.0 0.00 0.00 0.00 79 964.9
20260509145222 56 211 3.0 7.0 0.00 0.00 0.00 81 964.6
20260509143904 57 269 9.0 5.0 0.00 0.00 0.00 78 964.5
20260509143227 58 260 8.0 10.0 0.00 0.00 0.00 77 964.3
20260509142546 58 203 6.0 8.0 0.00 0.00 0.00 82 964.0
20260509141908 58 257 6.0 6.0 0.00 0.00 0.00 82 964.0
20260509141343 58 217 4.0 9.0 0.00 0.00 0.00 84 964.1
20260509141228 58 217 4.0 9.0 0.00 0.00 0.00 84 964.1
20260509140550 58 257 10.0 4.0 0.00 0.00 0.00 84 964.1
20260509135909 57 203 6.0 6.0 0.00 0.00 0.00 86 964.0
20260509135232 57 218 7.0 7.0 0.00 0.00 0.00 87 964.0
20260509134551 57 267 7.0 5.0 0.00 0.00 0.00 88 963.9
20260509133233 57 212 10.0 5.0 0.00 0.00 0.00 88 964.0
20260509132556 57 256 8.0 9.0 0.00 0.00 0.00 89 963.9
20260509131915 56 248 3.0 10.0 0.00 0.00 0.00 90 964.0
20260509131238 56 208 10.0 13.0 0.00 0.00 0.00 89 963.9
20260509130557 57 186 8.0 8.0 0.00 0.00 0.00 89 963.9
20260509125919 57 203 6.0 6.0 0.00 0.00 0.00 90 964.0
20260509125238 56 245 9.0 5.0 0.00 0.00 0.00 90 964.1
20260509124601 56 235 8.0 9.0 0.00 0.00 0.00 91 964.1
20260509123920 56 203 9.0 9.0 0.00 0.00 0.00 91 964.2
20260509123243 55 253 9.0 6.0 0.00 0.00 0.00 91 964.1
20260509122602 56 212 9.0 7.0 0.00 0.00 0.00 91 964.2
20260509121925 55 204 9.0 7.0 0.00 0.00 0.00 92 964.1
20260509121244 55 225 7.0 8.0 0.00 0.00 0.00 92 964.2
20260509120606 55 226 8.0 8.0 0.00 0.00 0.00 93 964.3
20260509115926 55 197 5.0 5.0 0.00 0.00 0.00 94 964.4
20260509115248 54 184 3.0 4.0 0.00 0.00 0.00 94 964.5
20260509114607 54 214 6.0 7.0 0.00 0.00 0.00 95 964.7
20260509113930 54 201 6.0 5.0 0.00 0.00 0.00 95 964.7
20260509113249 53 208 4.0 3.0 0.00 0.00 0.00 96 964.7
20260509112611 53 195 4.0 0.0 0.00 0.00 0.00 96 964.7
20260509111930 53 174 3.0 5.0 0.00 0.00 0.00 97 964.6
20260509111253 53 179 4.0 8.0 0.00 0.00 0.00 97 964.6
20260509110612 52 203 7.0 6.0 0.00 0.00 0.00 98 964.8
20260509105935 52 183 6.0 5.0 0.00 0.00 0.00 98 964.8
20260509105254 52 197 0.0 3.0 0.00 0.00 0.00 98 964.8
20260509104616 52 172 6.0 9.0 0.00 0.00 0.00 98 964.5
20260509103935 52 190 4.0 0.0 0.00 0.00 0.00 98 964.6
20260509103258 52 184 6.0 6.0 0.00 0.00 0.00 98 964.7
20260509102617 52 169 6.0 8.0 0.00 0.00 0.00 98 964.8
20260509101940 52 187 2.0 5.0 0.00 0.00 0.00 98 964.8
20260509101259 52 195 5.0 5.0 0.00 0.00 0.00 98 964.9
20260509100621 51 217 4.0 5.0 0.00 0.00 0.00 98 965.2
20260509095940 51 145 1.0 0.0 0.00 0.00 0.00 98 965.2
20260509095305 51 160 5.0 6.0 0.00 0.00 0.00 98 965.1
20260509094622 51 160 7.0 3.0 0.00 0.00 0.00 97 965.1
20260509093944 50 162 7.0 7.0 0.00 0.00 0.00 97 965.1
20260509093304 50 160 6.0 6.0 0.00 0.00 0.00 96 965.4
20260509092626 50 150 4.0 4.0 0.00 0.00 0.00 96 965.6
20260509091945 50 150 2.0 0.0 0.00 0.00 0.00 95 965.6
20260509091308 50 162 5.0 0.0 0.00 0.00 0.00 95 965.7
20260509090627 51 139 1.0 6.0 0.00 0.00 0.00 95 965.7
20260509085949 51 174 3.0 5.0 0.00 0.00 0.00 94 965.7
20260509085308 51 170 3.0 5.0 0.00 0.00 0.00 93 965.9
20260509084631 51 174 7.0 5.0 0.00 0.00 0.00 92 965.8
20260509083950 52 177 6.0 6.0 0.00 0.00 0.00 90 965.7
20260509083312 53 165 9.0 9.0 0.00 0.00 0.00 87 965.9
20260509082631 53 191 7.0 8.0 0.00 0.00 0.00 85 966.0
20260509081954 52 177 2.0 4.0 0.00 0.00 0.00 83 966.4
20260509081313 52 198 4.0 7.0 0.00 0.00 0.00 81 966.3
20260509080636 52 224 7.0 5.0 0.00 0.00 0.00 80 966.6
20260509075955 52 191 4.0 6.0 0.00 0.00 0.00 77 966.6
20260509074636 52 179 0.0 0.0 0.00 0.00 0.00 74 966.9
20260509073959 51 190 7.0 0.0 0.00 0.00 0.00 73 967.0
20260509073318 50 162 0.0 0.0 0.00 0.00 0.00 69 967.1
20260509072640 50 162 0.0 0.0 0.00 0.00 0.00 64 967.2
20260509071855 49 162 0.0 0.0 0.00 0.00 0.00 57 967.3
20260509071322 49 162 0.0 0.0 0.00 0.00 0.00 57 967.3
20260509070641 49 162 0.0 0.0 0.00 0.00 0.00 55 967.5
20260509070003 49 162 0.0 0.0 0.00 0.00 0.00 54 967.5
20260509065322 50 162 0.0 0.0 0.00 0.00 0.00 54 967.7
20260509064645 50 162 0.0 0.0 0.00 0.00 0.00 53 967.8
20260509064004 50 162 0.0 0.0 0.00 0.00 0.00 53 967.9
20260509063326 50 162 0.0 0.0 0.00 0.00 0.00 53 967.9
20260509062645 50 162 0.0 3.0 0.00 0.00 0.00 52 968.0
20260509062008 50 150 0.0 0.0 0.00 0.00 0.00 52 968.1
20260509060649 49 146 0.0 0.0 0.00 0.00 0.00 55 968.3
20260509060008 48 143 4.0 0.0 0.00 0.00 0.00 55 968.3
20260509055331 47 183 0.0 0.0 0.00 0.00 0.00 59 968.5
20260509054650 45 165 0.0 0.0 0.00 0.00 0.00 64 968.4
20260509054012 45 165 0.0 0.0 0.00 0.00 0.00 64 968.5
20260509053331 45 165 0.0 0.0 0.00 0.00 0.00 63 968.5
20260509052653 44 165 0.0 0.0 0.00 0.00 0.00 64 968.5
20260509052012 44 165 0.0 0.0 0.00 0.00 0.00 64 968.6
20260509051335 45 165 0.0 0.0 0.00 0.00 0.00 65 968.6
20260509050654 45 165 0.0 0.0 0.00 0.00 0.00 63 968.7
20260509050016 45 165 0.0 0.0 0.00 0.00 0.00 62 968.7
20260509045335 46 165 0.0 0.0 0.00 0.00 0.00 61 968.7
20260509044658 46 165 0.0 0.0 0.00 0.00 0.00 59 968.7
20260509044017 46 165 0.0 0.0 0.00 0.00 0.00 58 968.8
20260509043339 47 165 0.0 0.0 0.00 0.00 0.00 58 968.7
20260509042658 47 165 0.0 0.0 0.00 0.00 0.00 57 968.8
20260509042021 48 165 0.0 0.0 0.00 0.00 0.00 56 968.8
20260509041340 48 165 0.0 0.0 0.00 0.00 0.00 55 968.9
20260509040702 49 165 0.0 0.0 0.00 0.00 0.00 54 969.0
20260509040021 49 165 0.0 0.0 0.00 0.00 0.00 54 969.1
20260509034702 50 165 0.0 0.0 0.00 0.00 0.00 52 969.2
20260509034025 50 165 0.0 0.0 0.00 0.00 0.00 52 969.3
20260509033344 50 165 0.0 0.0 0.00 0.00 0.00 53 969.3
20260509032025 49 165 0.0 0.0 0.00 0.00 0.00 56 969.4
20260509031348 48 165 0.0 0.0 0.00 0.00 0.00 58 969.5
20260509030707 47 165 0.0 0.0 0.00 0.00 0.00 59 969.5
20260509030029 47 165 0.0 0.0 0.00 0.00 0.00 58 969.7
20260509024711 48 165 0.0 0.0 0.00 0.00 0.00 55 969.8
20260509024029 48 165 0.0 0.0 0.00 0.00 0.00 55 969.7
20260509023352 49 165 0.0 0.0 0.00 0.00 0.00 54 969.7
20260509022711 49 165 0.0 0.0 0.00 0.00 0.00 53 969.7
20260509022033 49 165 0.0 0.0 0.00 0.00 0.00 51 969.6
20260509020715 50 165 0.0 0.0 0.00 0.00 0.00 48 969.6
20260509020034 51 165 0.0 0.0 0.00 0.00 0.00 47 969.6
20260509015356 52 165 0.0 0.0 0.00 0.00 0.00 46 969.6
20260509014715 52 165 0.0 0.0 0.00 0.00 0.00 46 969.5
20260509014038 53 165 0.0 0.0 0.00 0.00 0.00 45 969.4
20260509013357 54 165 0.0 0.0 0.00 0.00 0.00 44 969.3
20260509012719 55 165 0.0 0.0 0.00 0.00 0.00 43 969.2
20260509012038 56 165 0.0 0.0 0.00 0.00 0.00 42 969.1
20260509011400 57 165 0.0 0.0 0.00 0.00 0.00 40 969.2
20260509010719 57 165 0.0 0.0 0.00 0.00 0.00 39 969.1
20260509005401 58 165 0.0 0.0 0.00 0.00 0.00 39 969.2
20260509004723 58 124 0.0 0.0 0.00 0.00 0.00 39 969.1
20260509004042 58 187 0.0 0.0 0.00 0.00 0.00 39 969.1
20260509003405 58 229 0.0 5.0 0.00 0.00 0.00 39 969.1
20260509002724 58 159 1.0 8.0 0.00 0.00 0.00 38 969.0
20260509002047 59 152 2.0 0.0 0.00 0.00 0.00 38 969.0
20260509001405 59 191 3.0 0.0 0.00 0.00 0.00 37 968.9
20260509000728 59 155 2.0 3.0 0.00 0.00 0.00 37 968.9
20260509000047 60 229 6.0 3.0 0.00 0.00 0.00 37 968.9
20260508235410 60 193 1.0 0.0 0.00 0.00 0.00 37 968.9
20260508234729 60 221 6.0 4.0 0.00 0.00 0.00 36 968.9
20260508234051 60 233 0.0 0.0 0.00 0.00 0.00 37 969.0
20260508233410 61 218 4.0 3.0 0.00 0.00 0.00 36 969.0
20260508232733 61 179 0.0 5.0 0.00 0.00 0.00 37 969.0
20260508232052 61 226 4.0 0.0 0.00 0.00 0.00 37 969.1
20260508231414 61 243 2.0 0.0 0.00 0.00 0.00 36 969.1
20260508230733 61 221 0.0 0.0 0.00 0.00 0.00 37 969.2
20260508225415 61 217 7.0 9.0 0.00 0.00 0.00 35 969.4
20260508224738 61 264 3.0 7.0 0.00 0.00 0.00 36 969.5
20260508224057 61 212 7.0 6.0 0.00 0.00 0.00 36 969.6
20260508223419 61 229 8.0 9.0 0.00 0.00 0.00 36 969.5
20260508222738 60 200 1.0 0.0 0.00 0.00 0.00 37 969.5
20260508222101 60 246 4.0 5.0 0.00 0.00 0.00 37 969.5
20260508221420 61 212 2.0 4.0 0.00 0.00 0.00 37 969.3
20260508220742 61 221 3.0 3.0 0.00 0.00 0.00 36 969.4
20260508215424 61 280 6.0 0.0 0.00 0.00 0.00 36 969.3
20260508214743 62 217 2.0 5.0 0.00 0.00 0.00 36 969.3
20260508213425 62 235 6.0 3.0 0.00 0.00 0.00 34 969.2
20260508212747 62 231 4.0 9.0 0.00 0.00 0.00 33 969.3
20260508211429 62 280 2.0 3.0 0.00 0.00 0.00 34 969.2
20260508210748 62 311 1.0 5.0 0.00 0.00 0.00 33 969.3
20260508210111 63 188 5.0 3.0 0.00 0.00 0.00 32 969.4
20260508205430 63 330 6.0 2.0 0.00 0.00 0.00 33 969.3
20260508204752 63 252 6.0 5.0 0.00 0.00 0.00 32 969.5
20260508204111 63 291 3.0 7.0 0.00 0.00 0.00 32 969.6
20260508203434 63 243 8.0 5.0 0.00 0.00 0.00 33 969.6
20260508202753 63 226 2.0 0.0 0.00 0.00 0.00 34 969.6
20260508202117 62 262 4.0 10.0 0.00 0.00 0.00 33 969.8
20260508201435 62 267 5.0 5.0 0.00 0.00 0.00 33 969.6